Location: Newark
(47.5347°N, 5.5339°E)
Time: 23:33:07
(UTC+00:00)

ISS - Pass Details

Date: 02 October 2019
Orbit: 411 x 421 km, 51.6° (Epoch: 14 October)

Event Time Altitude Azimuth Distance (km) Brightness Sun altitude
Rises 17:43:49 0° 285° (WNW) 2,346 2.0 -5.5°
Reaches altitude 10° 17:46:00 10° 293° (WNW) 1,483 0.3 -5.9°
Maximum altitude 17:49:09 40° 5° (N) 628 -2.9 -6.4°
Drops below altitude 10° 17:52:19 10° 77° (ENE) 1,481 -1.6 -6.9°
Enters shadow 17:52:34 - 78° (ENE) 1,580 -1.5 -7.0°
